TimeCST,TemperatureF,Dew PointF,Humidity,Sea Level PressureIn,VisibilityMPH,Wind Direction,Wind SpeedMPH,Gust SpeedMPH,PrecipitationIn,Events,Conditions,WindDirDegrees,DateUTC
12:53 AM,23.0,19.4,86,30.27,7.0,WNW,4.6,-,N/A,,Clear,300,2013-01-03 06:53:00
1:53 AM,21.0,18.0,88,30.30,7.0,Calm,Calm,-,N/A,,Clear,0,2013-01-03 07:53:00
2:53 AM,18.0,17.1,96,30.33,6.0,South,5.8,-,N/A,,Clear,180,2013-01-03 08:53:00
3:53 AM,23.0,21.0,92,30.34,6.0,SSW,5.8,-,N/A,,Overcast,200,2013-01-03 09:53:00
4:53 AM,21.9,19.9,92,30.36,7.0,WSW,4.6,-,N/A,,Scattered Clouds,250,2013-01-03 10:53:00
5:53 AM,24.1,21.9,91,30.38,7.0,Calm,Calm,-,N/A,,Mostly Cloudy,0,2013-01-03 11:53:00
6:53 AM,21.0,19.0,92,30.40,6.0,SSW,4.6,-,N/A,,Partly Cloudy,210,2013-01-03 12:53:00
7:53 AM,23.0,21.0,92,30.42,5.0,SW,5.8,-,N/A,,Mostly Cloudy,220,2013-01-03 13:53:00
8:53 AM,25.0,24.1,96,30.43,5.0,SW,3.5,-,N/A,,Clear,230,2013-01-03 14:53:00
9:53 AM,30.0,27.0,88,30.45,8.0,Calm,Calm,-,N/A,,Clear,0,2013-01-03 15:53:00
10:53 AM,34.0,28.0,79,30.46,8.0,Variable,5.8,-,N/A,,Clear,0,2013-01-03 16:53:00
11:53 AM,37.9,27.0,65,30.44,10.0,WNW,5.8,-,N/A,,Clear,290,2013-01-03 17:53:00
12:53 PM,39.0,24.1,55,30.41,10.0,Variable,4.6,-,N/A,,Clear,0,2013-01-03 18:53:00
1:53 PM,41.0,24.1,51,30.40,10.0,Variable,4.6,-,N/A,,Clear,0,2013-01-03 19:53:00
2:53 PM,41.0,23.0,49,30.40,10.0,NW,6.9,-,N/A,,Partly Cloudy,310,2013-01-03 20:53:00
3:53 PM,39.0,24.1,55,30.40,10.0,WSW,8.1,-,N/A,,Mostly Cloudy,240,2013-01-03 21:53:00
4:53 PM,37.9,23.0,55,30.41,10.0,West,4.6,-,N/A,,Overcast,270,2013-01-03 22:53:00
5:53 PM,37.0,25.0,62,30.43,10.0,NW,8.1,-,N/A,,Overcast,310,2013-01-03 23:53:00
6:53 PM,34.0,26.1,73,30.45,10.0,NNW,9.2,-,N/A,,Overcast,340,2013-01-04 00:53:00
7:53 PM,33.1,26.1,75,30.45,10.0,NW,5.8,-,N/A,,Overcast,320,2013-01-04 01:53:00
8:53 PM,32.0,26.1,79,30.45,10.0,NW,4.6,-,N/A,,Overcast,320,2013-01-04 02:53:00
9:53 PM,30.9,25.0,79,30.45,10.0,NW,5.8,-,N/A,,Overcast,310,2013-01-04 03:53:00
10:53 PM,28.9,24.1,82,30.46,10.0,Calm,Calm,-,N/A,,Clear,0,2013-01-04 04:53:00
11:53 PM,26.1,23.0,88,30.46,10.0,West,3.5,-,N/A,,Clear,280,2013-01-04 05:53:00